#timestamp,LO_Frequency,Hit,StdDev 
1565776815.4,286046999.1,N
1565776835.3,286046999.6,N
1565776855.1,286046997.0,N
1565776875.9,286046997.1,N
1565776895.7,286046997.8,N
1565776915.5,286046997.8,N
1565776935.4,286046998.8,N
1565776955.2,286046999.3,N
1565776975.0,286046997.3,N
1565776975.9,286046997.3,N
1565776995.8,286046997.8,N
1565777015.6,286046995.8,Y
1565777035.5,286046995.3,P
1565777055.3,286046997.2,N
1565777075.1,286046995.3,P
1565777095.9,286046997.3,N
1565777115.7,286046997.2,N
1565777135.5,286046994.9,Y
1565777155.4,286047000.3,P
1565777175.2,286047002.0,N
1565777195.1,286046998.4,N
1565777196.0,286046998.4,N
1565777215.8,286046997.0,N
1565777235.6,286046998.4,N
1565777255.5,286046997.1,N
1565777275.3,286046996.7,N
1565777295.2,286046997.2,N
1565777315.9,286046999.4,N
1565777335.7,286046997.8,N
1565777355.6,286046996.8,N
1565777375.4,286046997.2,N
1565777395.2,286046997.3,N
1565777415.1,286046997.4,N
1565777416.0,286046997.4,N
1565777435.8,286046995.2,Y
1565777455.7,286046999.5,P
1565777475.5,286046999.1,N
1565777495.3,286046995.7,P
1565777515.2,286046997.9,N
1565777535.0,286046995.0,Y
1565777535.9,286046995.0,P
1565777555.8,286046999.6,N
1565777575.6,286046998.1,N
1565777595.4,286046999.9,N
1565777615.3,286046998.4,N
1565777635.1,286046999.3,N
1565777655.8,286046996.5,N
1565777675.7,286046996.8,N
1565777695.5,286046999.0,N
1565777715.3,286046998.9,N
1565777735.2,286047000.3,N
1565777755.0,286046998.6,N
1565777755.9,286046998.6,N
1565777775.8,286046997.0,N
1565777795.6,286046999.6,N
1565777815.4,286046997.4,N
1565777835.3,286046994.9,Y
1565777855.1,286046999.1,P
1565777875.9,286046998.4,P
1565777895.7,286047000.8,N
1565777915.5,286047000.2,N
1565777935.4,286047000.9,N
1565777955.2,286046999.1,N
1565777975.0,286047000.4,N
1565777975.9,286047000.4,N
1565777995.8,286047001.1,N
1565778015.6,286047001.2,N
1565778035.5,286047000.8,N
1565778055.3,286047001.1,N
1565778075.1,286047000.0,N
1565778095.9,286046999.8,N
1565778115.7,286047000.1,N
1565778135.5,286047000.0,N
1565778155.4,286047001.1,N
1565778175.2,286047001.2,N
1565778195.1,286046999.7,N
1565778196.0,286046999.7,N
1565778215.8,286047000.0,N
1565778235.6,286047000.4,N
1565778255.5,286047002.4,N
1565778275.3,286047002.4,N
1565778295.1,286047002.5,N
1565778315.9,286047005.5,Y
1565778335.7,286046999.8,P
1565778355.6,286047001.6,P
1565778375.4,286047002.3,P
1565778395.2,286047001.0,N
1565778415.1,286047000.1,N
1565778416.0,286047000.1,N
1565778435.8,286047000.4,N
1565778455.7,286047000.7,N
1565778475.5,286047001.4,N
1565778495.3,286047002.6,Y
1565778515.2,286047000.1,P
1565778535.0,286046999.9,N
1565778535.9,286046999.9,N
1565778585.8,286047000.0,E
1565778595.7,286047002.8,N
1565778615.5,286047004.4,P
1565778635.4,286047000.4,N
1565778655.2,286047000.0,N
1565778675.0,286046998.6,N
1565778676.0,286046998.6,N
1565778695.8,286047001.0,N
1565778715.6,286046999.1,N
1565778735.5,286046999.5,N
1565778755.3,286046999.2,N
1565778775.1,286046997.1,N
1565778795.9,286046997.1,N
1565778815.7,286046997.7,N
1565778835.6,286046997.3,N
1565778855.4,286046996.9,N
1565778875.2,286046997.7,N
1565778895.1,286046994.9,N
1565778896.0,286046994.9,N
1565778915.8,286046995.8,N
1565778935.6,286046995.5,N
1565778955.5,286046997.6,N
1565778975.3,286046995.4,N
1565778995.2,286046997.2,N
1565779015.9,286046996.0,N
1565779035.7,286046995.8,N
1565779055.6,286046997.5,N
1565779075.4,286046996.1,N
1565779095.2,286046997.6,N
1565779115.1,286046995.0,N
1565779116.0,286046995.0,N
1565779135.8,286046997.9,N
1565779155.7,286046997.4,N
1565779175.5,286046993.3,Y
1565779195.3,286046996.8,P
1565779215.2,286046999.1,P
1565779235.0,286046997.7,N
1565779235.9,286046997.7,N
1565779255.8,286046999.5,N
1565779275.6,286046997.5,N
1565779295.4,286046996.5,Y
1565779315.3,286046999.3,P
1565779335.1,286046999.3,N
1565779355.8,286046996.5,P
1565779375.7,286046996.5,Y
1565779395.5,286046996.7,P
1565779415.4,286047000.8,N
1565779435.2,286046998.4,N
1565779455.0,286046997.4,N
1565779455.9,286046997.4,N
1565779475.8,286046997.4,N
1565779495.6,286046997.3,N
1565779515.5,286046999.1,N
1565779535.3,286046996.6,N
1565779555.1,286046997.7,N
1565779575.9,286046997.6,N
1565779595.7,286046997.8,N
1565779615.5,286046995.3,Y
1565779635.4,286046999.6,P
1565779655.2,286046998.6,N
1565779675.1,286046996.5,P
1565779676.0,286046996.5,Y
1565779695.8,286047001.2,P
1565779715.6,286046998.1,N
1565779735.5,286046999.3,N
1565779755.3,286046999.2,N
1565779775.1,286046997.6,N
1565779795.9,286046997.2,N
1565779815.7,286046996.7,N
1565779835.6,286046998.8,N
1565779855.4,286046996.5,N
1565779875.2,286046997.4,N
1565779895.1,286046997.7,N
1565779896.0,286046997.7,N
1565779915.8,286046997.3,N
1565779935.7,286046997.7,N
1565779955.5,286046997.4,N
1565779975.3,286046997.4,N
1565779995.2,286046995.0,Y
1565780015.0,286046999.2,P
1565780015.9,286046999.2,N
1565780035.7,286046997.4,P
1565780055.6,286046997.1,Y
1565780075.4,286047000.4,P
1565780095.3,286047000.9,N
1565780115.1,286047001.2,N
1565780116.0,286047001.2,N
1565780135.8,286047000.9,N
1565780155.7,286046999.8,N
1565780175.5,286046998.2,N
1565780195.3,286046999.3,N
1565780215.2,286046999.6,N
1565780235.0,286046998.8,N
1565780235.9,286046998.8,N
1565780255.8,286046999.0,N
1565780275.6,286046997.0,N
1565780295.4,286046996.9,N
1565780315.3,286046995.1,Y
1565780335.1,286046994.9,P
1565780355.9,286046994.9,N
1565780375.7,286046995.0,N
1565780395.5,286046996.7,N
